Terminal Aerodrome Forecast
Issued by NWS

Home | Current Version | Previous Version | Text Only | Print | Product List | Glossary On
Versions: 1 2 3 4 5 6 7 8 9 10 11 12 13
000
FTUS46 KSEW 230555
TAFOLM
TAF
KOLM 230555Z 2306/2406 02004KT P6SM SKC
     FM231200 21004KT P6SM FEW250
     FM231700 27008KT P6SM SCT250
     FM232100 26010G18KT P6SM SCT250=

USA.gov is the U.S. government's official web portal to all federal, state and local government web resources and services.